NEXUS (FO-99) (43937 NORAD) Tracking and Keplerian Element Data

This shows tracking and keplerian element data for the satellite.

Feedback or suggestion? Click here.




ElementValue
Catalog43937
NameNEXUS (FO-99)
Epoch Orbit21396
Epoch Day325.06807279
Epoch Year2022
RAAN352.6017
Inclination97.1151
Eccentricity0.00168
Argument of Perigee317.6056
Mean Anonmoly42.3889
Mean Motion15.35209727
Decay Rate0.00014512
L11 43937U 19003F 22325.06807279 .00014512 00000+0 42459-3 0 9991
L22 43937 97.1151 352.6017 0016800 317.6056 42.3889 15.35209727213965



Live tracking and technical data element details for NEXUS (FO-99) (NORAD 43937). NEXUS (FO-99) can be tracked NOW for your location showing map with azimuth and elevation plus other details from your city location.







IsCatalogInMostPopularTable: catalog: 43937, numindb: 612
Update: records affected: 1



GetName: 43937 NEXUS (FO-99)

Hit Count: updated at: Fri, 02 Dec 2022 13:39:13 GMT